Time,TemperatureF,DewpointF,PressureIn,WindDirection,WindDirectionDegrees,WindSpeedMPH,WindSpeedGustMPH,Humidity,HourlyPrecipIn,Conditions,Clouds,dailyrainin,SoftwareType,DateUTC
2013-05-03 00:03:00,61.0,39.0,30.23,ESE,109,1.0,-999.0,44,-99.99,,,-99.99,,2013-05-03 04:03:00,
2013-05-03 00:13:00,61.0,39.0,30.23,ESE,109,1.0,-999.0,44,-99.99,,,-99.99,,2013-05-03 04:13:00,
2013-05-03 00:23:00,61.0,40.0,30.23,ESE,111,1.0,-999.0,45,-99.99,,,-99.99,,2013-05-03 04:23:00,
2013-05-03 00:32:00,61.0,41.0,30.23,ESE,111,0.0,-999.0,47,-99.99,,,-99.99,,2013-05-03 04:32:00,
2013-05-03 00:43:00,61.0,41.0,30.23,ESE,111,0.0,-999.0,47,-99.99,,,-99.99,,2013-05-03 04:43:00,
2013-05-03 00:53:00,61.0,40.0,30.23,ESE,111,1.0,-999.0,46,-99.99,,,-99.99,,2013-05-03 04:53:00,
2013-05-03 01:02:00,61.0,40.0,30.23,ESE,111,1.0,-999.0,46,-99.99,,,-99.99,,2013-05-03 05:02:00,
2013-05-03 01:12:00,61.0,40.0,30.23,ESE,111,1.0,-999.0,46,-99.99,,,-99.99,,2013-05-03 05:12:00,
2013-05-03 01:22:00,60.0,40.0,30.23,ESE,111,0.0,-999.0,47,-99.99,,,-99.99,,2013-05-03 05:22:00,
2013-05-03 01:32:00,60.0,39.0,30.23,ESE,111,0.0,-999.0,46,-99.99,,,-99.99,,2013-05-03 05:32:00,
2013-05-03 01:42:00,60.0,39.0,30.23,ESE,111,0.0,-999.0,46,-99.99,,,-99.99,,2013-05-03 05:42:00,
2013-05-03 01:52:00,61.0,38.0,30.23,ESE,111,0.0,-999.0,43,-99.99,,,-99.99,,2013-05-03 05:52:00,
2013-05-03 02:02:00,61.0,38.0,30.23,ESE,111,0.0,-999.0,43,-99.99,,,-99.99,,2013-05-03 06:02:00,
2013-05-03 02:12:00,61.0,38.0,30.23,ESE,111,0.0,-999.0,43,-99.99,,,-99.99,,2013-05-03 06:12:00,
2013-05-03 02:21:00,59.0,38.0,30.23,ESE,111,0.0,-999.0,45,-99.99,,,-99.99,,2013-05-03 06:21:00,
2013-05-03 02:32:00,59.0,38.0,30.22,ESE,111,0.0,-999.0,45,-99.99,,,-99.99,,2013-05-03 06:32:00,
2013-05-03 02:42:00,59.0,38.0,30.22,ESE,111,0.0,-999.0,45,-99.99,,,-99.99,,2013-05-03 06:42:00,
2013-05-03 02:52:00,59.0,37.0,30.22,ESE,111,0.0,-999.0,44,-99.99,,,-99.99,,2013-05-03 06:52:00,
2013-05-03 03:01:00,59.0,39.0,30.23,ESE,111,0.0,-999.0,47,-99.99,,,-99.99,,2013-05-03 07:01:00,
2013-05-03 03:11:00,59.0,39.0,30.23,ESE,111,0.0,-999.0,47,-99.99,,,-99.99,,2013-05-03 07:11:00,
2013-05-03 03:22:00,57.0,39.0,30.23,ESE,111,0.0,-999.0,51,-99.99,,,-99.99,,2013-05-03 07:22:00,
2013-05-03 03:32:00,56.0,39.0,30.23,ESE,111,0.0,-999.0,52,-99.99,,,-99.99,,2013-05-03 07:32:00,
2013-05-03 03:42:00,56.0,39.0,30.23,ESE,111,0.0,-999.0,52,-99.99,,,-99.99,,2013-05-03 07:42:00,
2013-05-03 03:52:00,56.0,38.0,30.23,ESE,111,0.0,-999.0,51,-99.99,,,-99.99,,2013-05-03 07:52:00,
2013-05-03 04:02:00,56.0,39.0,30.23,ESE,111,1.0,-999.0,53,-99.99,,,-99.99,,2013-05-03 08:02:00,
2013-05-03 04:12:00,56.0,39.0,30.23,ESE,111,1.0,-999.0,53,-99.99,,,-99.99,,2013-05-03 08:12:00,
2013-05-03 04:21:00,56.0,40.0,30.23,ESE,111,1.0,-999.0,54,-99.99,,,-99.99,,2013-05-03 08:21:00,
2013-05-03 04:32:00,56.0,40.0,30.23,ESE,111,0.0,-999.0,54,-99.99,,,-99.99,,2013-05-03 08:32:00,
2013-05-03 04:42:00,56.0,40.0,30.23,ESE,111,0.0,-999.0,54,-99.99,,,-99.99,,2013-05-03 08:42:00,
2013-05-03 04:52:00,56.0,41.0,30.23,ESE,111,0.0,-999.0,56,-99.99,,,-99.99,,2013-05-03 08:52:00,
2013-05-03 05:01:00,55.0,41.0,30.23,ESE,111,0.0,-999.0,59,-99.99,,,-99.99,,2013-05-03 09:01:00,
2013-05-03 05:12:00,55.0,41.0,30.23,ESE,111,0.0,-999.0,59,-99.99,,,-99.99,,2013-05-03 09:12:00,
2013-05-03 05:21:00,55.0,41.0,30.23,ESE,111,0.0,-999.0,59,-99.99,,,-99.99,,2013-05-03 09:21:00,
2013-05-03 05:32:00,55.0,41.0,30.24,ESE,111,0.0,-999.0,59,-99.99,,,-99.99,,2013-05-03 09:32:00,
2013-05-03 05:42:00,55.0,41.0,30.24,ESE,111,0.0,-999.0,59,-99.99,,,-99.99,,2013-05-03 09:42:00,
2013-05-03 05:52:00,55.0,41.0,30.24,ESE,111,0.0,-999.0,59,-99.99,,,-99.99,,2013-05-03 09:52:00,
2013-05-03 06:03:00,55.0,41.0,30.24,ESE,111,0.0,-999.0,59,-99.99,,,-99.99,,2013-05-03 10:03:00,
2013-05-03 06:13:00,55.0,41.0,30.24,ESE,111,0.0,-999.0,59,-99.99,,,-99.99,,2013-05-03 10:13:00,
2013-05-03 06:22:00,55.0,41.0,30.24,ESE,111,0.0,-999.0,59,-99.99,,,-99.99,,2013-05-03 10:22:00,
2013-05-03 06:32:00,53.0,41.0,30.24,ESE,111,0.0,-999.0,64,-99.99,,,-99.99,,2013-05-03 10:32:00,
2013-05-03 06:42:00,53.0,41.0,30.24,ESE,111,0.0,-999.0,64,-99.99,,,-99.99,,2013-05-03 10:42:00,
2013-05-03 06:52:00,52.0,41.0,30.25,ESE,111,0.0,-999.0,67,-99.99,,,-99.99,,2013-05-03 10:52:00,
2013-05-03 07:02:00,52.0,42.0,30.26,ESE,111,0.0,-999.0,69,-99.99,,,-99.99,,2013-05-03 11:02:00,
2013-05-03 07:11:00,52.0,42.0,30.26,ESE,111,0.0,-999.0,69,-99.99,,,-99.99,,2013-05-03 11:11:00,
2013-05-03 07:22:00,52.0,42.0,30.27,ESE,111,1.0,-999.0,68,-99.99,,,-99.99,,2013-05-03 11:22:00,
2013-05-03 07:32:00,53.0,43.0,30.27,ESE,111,1.0,-999.0,68,-99.99,,,-99.99,,2013-05-03 11:32:00,
2013-05-03 07:42:00,53.0,43.0,30.27,ESE,111,1.0,-999.0,68,-99.99,,,-99.99,,2013-05-03 11:42:00,
2013-05-03 07:52:00,55.0,44.0,30.27,ESE,113,1.0,-999.0,66,-99.99,,,-99.99,,2013-05-03 11:52:00,
2013-05-03 08:02:00,56.0,43.0,30.28,SE,125,2.0,-999.0,62,-99.99,,,-99.99,,2013-05-03 12:02:00,
2013-05-03 08:12:00,56.0,43.0,30.28,SE,125,2.0,-999.0,62,-99.99,,,-99.99,,2013-05-03 12:12:00,
2013-05-03 08:22:00,58.0,44.0,30.28,SSE,152,3.0,-999.0,59,-99.99,,,-99.99,,2013-05-03 12:22:00,
2013-05-03 08:32:00,59.0,43.0,30.28,SSE,152,2.0,-999.0,56,-99.99,,,-99.99,,2013-05-03 12:32:00,
2013-05-03 08:42:00,59.0,43.0,30.28,SSE,152,2.0,-999.0,56,-99.99,,,-99.99,,2013-05-03 12:42:00,
2013-05-03 08:52:00,61.0,44.0,30.28,SSE,155,1.0,-999.0,53,-99.99,,,-99.99,,2013-05-03 12:52:00,
2013-05-03 09:01:00,63.0,45.0,30.28,SSE,155,1.0,-999.0,51,-99.99,,,-99.99,,2013-05-03 13:01:00,
2013-05-03 09:11:00,63.0,45.0,30.28,SSE,155,1.0,-999.0,51,-99.99,,,-99.99,,2013-05-03 13:11:00,
2013-05-03 09:22:00,65.0,45.0,30.28,South,170,1.0,-999.0,49,-99.99,,,-99.99,,2013-05-03 13:22:00,
2013-05-03 09:32:00,65.0,44.0,30.28,SSE,167,3.0,-999.0,47,-99.99,,,-99.99,,2013-05-03 13:32:00,
2013-05-03 09:42:00,65.0,44.0,30.28,SSE,167,3.0,-999.0,47,-99.99,,,-99.99,,2013-05-03 13:42:00,
2013-05-03 09:52:00,66.0,43.0,30.28,SSE,166,2.0,-999.0,44,-99.99,,,-99.99,,2013-05-03 13:52:00,
2013-05-03 10:02:00,68.0,43.0,30.27,SSE,150,2.0,-999.0,41,-99.99,,,-99.99,,2013-05-03 14:02:00,
2013-05-03 10:11:00,68.0,43.0,30.27,SSE,150,2.0,-999.0,41,-99.99,,,-99.99,,2013-05-03 14:11:00,
2013-05-03 10:22:00,69.0,45.0,30.27,SSE,150,1.0,-999.0,42,-99.99,,,-99.99,,2013-05-03 14:22:00,
2013-05-03 10:32:00,69.0,44.0,30.27,SE,146,2.0,-999.0,41,-99.99,,,-99.99,,2013-05-03 14:32:00,
2013-05-03 10:42:00,69.0,44.0,30.27,SE,146,2.0,-999.0,41,-99.99,,,-99.99,,2013-05-03 14:42:00,
2013-05-03 10:52:00,69.0,43.0,30.27,ESE,107,3.0,-999.0,39,-99.99,,,-99.99,,2013-05-03 14:52:00,
2013-05-03 11:01:00,70.0,44.0,30.27,ESE,120,2.0,-999.0,39,-99.99,,,-99.99,,2013-05-03 15:01:00,
2013-05-03 11:11:00,70.0,44.0,30.27,ESE,120,2.0,-999.0,39,-99.99,,,-99.99,,2013-05-03 15:11:00,
2013-05-03 11:22:00,71.0,46.0,30.27,SE,141,1.0,-999.0,41,-99.99,,,-99.99,,2013-05-03 15:22:00,
2013-05-03 11:32:00,71.0,45.0,30.27,SE,134,3.0,-999.0,39,-99.99,,,-99.99,,2013-05-03 15:32:00,
2013-05-03 11:43:00,71.0,45.0,30.27,SE,134,3.0,-999.0,39,-99.99,,,-99.99,,2013-05-03 15:43:00,
2013-05-03 11:53:00,71.0,44.0,30.26,SSE,148,4.0,-999.0,38,-99.99,,,-99.99,,2013-05-03 15:53:00,
2013-05-03 12:03:00,72.0,45.0,30.26,ESE,107,2.0,-999.0,38,-99.99,,,-99.99,,2013-05-03 16:03:00,
2013-05-03 12:13:00,72.0,45.0,30.26,ESE,107,2.0,-999.0,38,-99.99,,,-99.99,,2013-05-03 16:13:00,
2013-05-03 12:23:00,72.0,48.0,30.26,East,98,2.0,-999.0,42,-99.99,,,-99.99,,2013-05-03 16:23:00,
2013-05-03 12:33:00,72.0,44.0,30.26,SSE,148,3.0,-999.0,37,-99.99,,,-99.99,,2013-05-03 16:33:00,
2013-05-03 12:42:00,72.0,44.0,30.26,SSE,148,3.0,-999.0,37,-99.99,,,-99.99,,2013-05-03 16:42:00,
2013-05-03 12:52:00,72.0,44.0,30.25,ESE,111,3.0,-999.0,37,-99.99,,,-99.99,,2013-05-03 16:52:00,
2013-05-03 13:02:00,72.0,45.0,30.24,ESE,112,4.0,-999.0,38,-99.99,,,-99.99,,2013-05-03 17:02:00,
2013-05-03 13:12:00,72.0,45.0,30.24,ESE,112,4.0,-999.0,38,-99.99,,,-99.99,,2013-05-03 17:12:00,
2013-05-03 13:23:00,72.0,46.0,30.24,SE,127,4.0,-999.0,39,-99.99,,,-99.99,,2013-05-03 17:23:00,
2013-05-03 13:32:00,73.0,46.0,30.24,SE,136,7.0,-999.0,38,-99.99,,,-99.99,,2013-05-03 17:32:00,
2013-05-03 13:42:00,73.0,46.0,30.24,SE,136,7.0,-999.0,38,-99.99,,,-99.99,,2013-05-03 17:42:00,
2013-05-03 13:52:00,72.0,47.0,30.24,East,82,6.0,-999.0,41,-99.99,,,-99.99,,2013-05-03 17:52:00,
2013-05-03 14:01:00,73.0,47.0,30.24,ESE,116,5.0,-999.0,40,-99.99,,,-99.99,,2013-05-03 18:01:00,
2013-05-03 14:12:00,73.0,47.0,30.24,ESE,116,5.0,-999.0,40,-99.99,,,-99.99,,2013-05-03 18:12:00,
2013-05-03 14:22:00,73.0,47.0,30.23,SSE,148,6.0,-999.0,39,-99.99,,,-99.99,,2013-05-03 18:22:00,
2013-05-03 14:32:00,73.0,47.0,30.23,ESE,102,6.0,-999.0,39,-99.99,,,-99.99,,2013-05-03 18:32:00,
2013-05-03 14:42:00,73.0,47.0,30.23,ESE,102,6.0,-999.0,39,-99.99,,,-99.99,,2013-05-03 18:42:00,
2013-05-03 14:51:00,74.0,47.0,30.23,SE,133,6.0,-999.0,39,-99.99,,,-99.99,,2013-05-03 18:51:00,
2013-05-03 15:01:00,73.0,45.0,30.23,SE,142,8.0,-999.0,37,-99.99,,,-99.99,,2013-05-03 19:01:00,
2013-05-03 15:11:00,73.0,45.0,30.23,SE,142,8.0,-999.0,37,-99.99,,,-99.99,,2013-05-03 19:11:00,
2013-05-03 15:21:00,73.0,46.0,30.22,ESE,114,7.0,-999.0,38,-99.99,,,-99.99,,2013-05-03 19:21:00,
2013-05-03 15:32:00,73.0,44.0,30.22,ESE,110,8.0,-999.0,36,-99.99,,,-99.99,,2013-05-03 19:32:00,
2013-05-03 15:42:00,73.0,44.0,30.22,ESE,110,8.0,-999.0,36,-99.99,,,-99.99,,2013-05-03 19:42:00,
2013-05-03 15:52:00,74.0,46.0,30.21,SE,125,6.0,-999.0,37,-99.99,,,-99.99,,2013-05-03 19:52:00,
2013-05-03 16:02:00,73.0,44.0,30.21,ESE,105,7.0,-999.0,35,-99.99,,,-99.99,,2013-05-03 20:02:00,
2013-05-03 16:12:00,73.0,44.0,30.21,ESE,105,7.0,-999.0,35,-99.99,,,-99.99,,2013-05-03 20:12:00,
2013-05-03 16:21:00,74.0,44.0,30.20,ESE,103,6.0,-999.0,34,-99.99,,,-99.99,,2013-05-03 20:21:00,
2013-05-03 16:32:00,74.0,45.0,30.20,ESE,109,7.0,-999.0,35,-99.99,,,-99.99,,2013-05-03 20:32:00,
2013-05-03 16:42:00,74.0,45.0,30.20,ESE,109,7.0,-999.0,35,-99.99,,,-99.99,,2013-05-03 20:42:00,
2013-05-03 16:52:00,73.0,44.0,30.20,ESE,123,8.0,-999.0,35,-99.99,,,-99.99,,2013-05-03 20:52:00,
2013-05-03 17:02:00,73.0,43.0,30.19,ESE,111,6.0,-999.0,34,-99.99,,,-99.99,,2013-05-03 21:02:00,
2013-05-03 17:11:00,73.0,43.0,30.19,ESE,111,6.0,-999.0,34,-99.99,,,-99.99,,2013-05-03 21:11:00,
2013-05-03 17:22:00,74.0,45.0,30.19,ESE,114,6.0,-999.0,35,-99.99,,,-99.99,,2013-05-03 21:22:00,
2013-05-03 17:33:00,73.0,44.0,30.19,ESE,118,7.0,-999.0,35,-99.99,,,-99.99,,2013-05-03 21:33:00,
2013-05-03 17:42:00,73.0,44.0,30.19,ESE,118,7.0,-999.0,35,-99.99,,,-99.99,,2013-05-03 21:42:00,
2013-05-03 17:52:00,74.0,45.0,30.19,East,87,5.0,-999.0,35,-99.99,,,-99.99,,2013-05-03 21:52:00,
2013-05-03 18:03:00,73.0,44.0,30.19,ESE,117,7.0,-999.0,35,-99.99,,,-99.99,,2013-05-03 22:03:00,
2013-05-03 18:13:00,73.0,44.0,30.19,ESE,117,7.0,-999.0,35,-99.99,,,-99.99,,2013-05-03 22:13:00,
2013-05-03 18:22:00,73.0,44.0,30.18,ENE,74,6.0,-999.0,35,-99.99,,,-99.99,,2013-05-03 22:22:00,
2013-05-03 18:32:00,74.0,45.0,30.18,ESE,120,7.0,-999.0,35,-99.99,,,-99.99,,2013-05-03 22:32:00,
2013-05-03 18:42:00,74.0,45.0,30.18,ESE,120,7.0,-999.0,35,-99.99,,,-99.99,,2013-05-03 22:42:00,
2013-05-03 18:52:00,74.0,45.0,30.18,ESE,120,7.0,-999.0,35,-99.99,,,-99.99,,2013-05-03 22:52:00,
2013-05-03 19:02:00,73.0,44.0,30.18,SE,134,6.0,-999.0,35,-99.99,,,-99.99,,2013-05-03 23:02:00,
2013-05-03 19:11:00,73.0,44.0,30.18,SE,134,6.0,-999.0,35,-99.99,,,-99.99,,2013-05-03 23:11:00,
2013-05-03 19:22:00,73.0,44.0,30.19,ESE,105,6.0,-999.0,35,-99.99,,,-99.99,,2013-05-03 23:22:00,
2013-05-03 19:32:00,71.0,47.0,30.19,ENE,73,3.0,-999.0,42,-99.99,,,-99.99,,2013-05-03 23:32:00,
2013-05-03 19:41:00,71.0,47.0,30.19,ENE,73,3.0,-999.0,42,-99.99,,,-99.99,,2013-05-03 23:41:00,
2013-05-03 19:52:00,70.0,46.0,30.18,NE,54,3.0,-999.0,43,-99.99,,,-99.99,,2013-05-03 23:52:00,
2013-05-03 20:01:00,69.0,46.0,30.18,ENE,67,3.0,-999.0,43,-99.99,,,-99.99,,2013-05-04 00:01:00,
2013-05-03 20:11:00,69.0,46.0,30.18,ENE,67,3.0,-999.0,43,-99.99,,,-99.99,,2013-05-04 00:11:00,
2013-05-03 20:23:00,68.0,45.0,30.19,ENE,66,5.0,-999.0,43,-99.99,,,-99.99,,2013-05-04 00:23:00,
2013-05-03 20:32:00,67.0,46.0,30.19,ENE,65,2.0,-999.0,46,-99.99,,,-99.99,,2013-05-04 00:32:00,
2013-05-03 20:42:00,67.0,46.0,30.19,ENE,65,2.0,-999.0,46,-99.99,,,-99.99,,2013-05-04 00:42:00,
2013-05-03 20:52:00,66.0,45.0,30.19,ENE,61,1.0,-999.0,47,-99.99,,,-99.99,,2013-05-04 00:52:00,
2013-05-03 21:01:00,65.0,45.0,30.20,ENE,65,2.0,-999.0,48,-99.99,,,-99.99,,2013-05-04 01:01:00,
2013-05-03 21:11:00,65.0,45.0,30.20,ENE,65,2.0,-999.0,48,-99.99,,,-99.99,,2013-05-04 01:11:00,
2013-05-03 21:21:00,64.0,44.0,30.20,ENE,65,1.0,-999.0,49,-99.99,,,-99.99,,2013-05-04 01:21:00,
2013-05-03 21:32:00,63.0,44.0,30.20,ENE,67,1.0,-999.0,50,-99.99,,,-99.99,,2013-05-04 01:32:00,
2013-05-03 21:42:00,63.0,44.0,30.20,ENE,67,1.0,-999.0,50,-99.99,,,-99.99,,2013-05-04 01:42:00,
2013-05-03 21:52:00,62.0,44.0,30.20,ENE,67,1.0,-999.0,51,-99.99,,,-99.99,,2013-05-04 01:52:00,
2013-05-03 22:02:00,62.0,45.0,30.21,ENE,67,1.0,-999.0,53,-99.99,,,-99.99,,2013-05-04 02:02:00,
2013-05-03 22:11:00,62.0,45.0,30.21,ENE,67,1.0,-999.0,53,-99.99,,,-99.99,,2013-05-04 02:11:00,
2013-05-03 22:21:00,62.0,45.0,30.21,East,82,2.0,-999.0,53,-99.99,,,-99.99,,2013-05-04 02:21:00,
2013-05-03 22:32:00,62.0,45.0,30.21,East,89,2.0,-999.0,53,-99.99,,,-99.99,,2013-05-04 02:32:00,
2013-05-03 22:42:00,62.0,45.0,30.21,East,89,2.0,-999.0,53,-99.99,,,-99.99,,2013-05-04 02:42:00,
2013-05-03 22:52:00,62.0,45.0,30.20,East,89,2.0,-999.0,53,-99.99,,,-99.99,,2013-05-04 02:52:00,
2013-05-03 23:02:00,62.0,45.0,30.20,ESE,106,2.0,-999.0,53,-99.99,,,-99.99,,2013-05-04 03:02:00,
2013-05-03 23:11:00,62.0,45.0,30.20,ESE,106,2.0,-999.0,53,-99.99,,,-99.99,,2013-05-04 03:11:00,
2013-05-03 23:22:00,62.0,45.0,30.20,ESE,109,2.0,-999.0,53,-99.99,,,-99.99,,2013-05-04 03:22:00,
2013-05-03 23:33:00,62.0,45.0,30.19,ESE,109,3.0,-999.0,53,-99.99,,,-99.99,,2013-05-04 03:33:00,
2013-05-03 23:43:00,62.0,45.0,30.19,ESE,109,3.0,-999.0,53,-99.99,,,-99.99,,2013-05-04 03:43:00,
2013-05-03 23:52:00,62.0,44.0,30.19,ESE,110,3.0,-999.0,52,-99.99,,,-99.99,,2013-05-04 03:52:00,